User: anonymous   Login
Location: ???????
(55.4362°N, 38.1183°E)
Time: 02:56:00
(UTC+00:00)
Language:

NOAA 15 - Orbit

View from above orbital plane
View from above orbital plane
View from above satellite
View from above satellite

Ground track
Ground track

The orbit data is extracted from the following two-line orbital elements,

1 25338U 98030A   21339.84542704  .00000052  00000-0  40234-4 0  9997
2 25338  98.6661   6.7038 0011114 137.9328 222.2707 14.26074009225671
Epoch (UTC): 05 December 2021 20:17:24
Eccentricity: 0.0011114
inclination: 98.6661°
perigee height: 797 km
apogee height: 813 km
right ascension of ascending node: 6.7038°
argument of perigee: 137.9328°
revolutions per day: 14.26074009
mean anomaly at epoch: 222.2707°
orbit number at epoch: 22567

The dashed part of the orbit path shows where the satellite is in the earth's shadow,  

DLR